Simultaneous Nadir Overpasses (SNOs) Predictions

Prediction of SNOs between FY3D and LANDSAT-8 Satellite Orbit:

Table of predicted SNOs for the next 14.0 days since TLE Epoch: 9/19/2020
Index Date (FY3D) Time (FY3D) Lat,Lon (FY3D) SZA (FY3D ) Date (LANDSAT-8) Time (LANDSAT-8) Lat,Lon (LANDSAT-8) SZA (LANDSAT-8 ) Distance(km) Time Diff (sec)
1 09/20/2020 15:05:25 -71.53, 129.28 109.30 09/20/2020 15:06:31 -71.42, 131.81 109.44 90.42 66
2 09/20/2020 15:55:53 70.58, -61.80 69.75 09/20/2020 15:56:11 70.61, -61.81 69.77 3.12 18
3 09/20/2020 16:46:34 -70.49, 105.67 110.34 09/20/2020 16:45:41 -70.50, 105.66 110.33 1.74 53
4 09/23/2020 08:12:16 70.60, 54.08 70.81 09/23/2020 08:12:41 70.60, 54.06 70.81 0.94 25
5 09/23/2020 09:02:57 -70.50,-138.44 109.28 09/23/2020 09:02:11 -70.50,-138.47 109.29 1.28 46
6 09/26/2020 00:28:39 70.62, 169.96 71.87 09/26/2020 00:29:10 70.65, 170.00 71.89 3.28 31
7 09/26/2020 01:19:20 -70.52, -22.55 108.22 09/26/2020 01:18:40 -70.54, -22.52 108.20 3.01 40
8 09/28/2020 16:45:02 70.64, -74.16 72.93 09/28/2020 16:45:40 70.64, -74.13 72.92 1.13 38
9 09/28/2020 17:35:43 -70.54, 93.34 107.17 09/28/2020 17:35:10 -70.54, 93.35 107.17 0.52 33
10 10/01/2020 09:01:23 70.61, 41.81 73.94 10/01/2020 09:02:09 70.62, 41.73 73.95 3.21 46
11 10/01/2020 09:52:05 -70.56,-150.78 106.11 10/01/2020 09:51:38 -70.58,-150.71 106.09 3.49 27
